C/2008 P1 ( Garradd )

Japanese version
Home page
Total 6,336 html files since Dec. 4, 1995
Updated on October 21, 2008

---------------------------------------------------------------------

* Profile

Discovery Date August 13, 2008
Magnitude 16.7 mag
Discoverer G. J. Garradd (Siding Spring Survey)

* Pictures

* Orbital Elements

Epoch 2009 July 28.0 TT = JDT 2455040.5
T 2009 July 22.91801 TT                                 MPC
q   3.8961628            (2000.0)            P               Q
z  -0.0004708      Peri.   11.86001     +0.98146017     -0.18815226
 +/-0.0000469      Node   357.67656     -0.02839331     +0.04577674
e   1.0018342      Incl.   64.30892     +0.18955144     +0.98107248

* Finding Charts

* Magnitudes Graph

        m1 = 6.5 + 5 log d + 10.0 log r

---------------------------------------------------------------------

The orbital elements are published on M.P.E.C. 2008-U16.
The charts are made with StellaNavigator Ver.8 (AstroArts).
The magnitudes graphs are made with Comet for Windows.

---------------------------------------------------------------------

Copyright(C) 1995-2008 Seiichi Yoshida (comet@aerith.net). All rights reserved.